• In Germany
  • List of Countries
  • For 7 days
  • Water Temperature
  • Satellite Maps
  • Weather Map
  • Weather Widgets
  • user-avatar
    Login

    Hourly Weather Giumri

    Today, 20 September, Wednesday

    Time Temperature Precipitation Wind Pressure Humidity
    00:00 +17°C° 0.6 mm 2 mps 637 mmHg 71%
    01:00 +16°C° 0.2 mm 1 mps 637 mmHg 72%
    02:00 +16°C° 0.2 mm 1 mps 637 mmHg 73%
    03:00 +15°C° 0 mm 1 mps 636 mmHg 68%
    04:00 +15°C° 0.2 mm 1 mps 636 mmHg 69%
    05:00 +15°C° 0.2 mm 1 mps 636 mmHg 69%
    06:00 +14°C° 0.2 mm 1 mps 636 mmHg 69%
    07:00 +18°C° 0 mm 1 mps 637 mmHg 59%
    08:00 +21°C° 0 mm 1 mps 638 mmHg 48%
    09:00 +23°C° 0 mm 1 mps 639 mmHg 37%
    10:00 +25°C° 0 mm 2 mps 639 mmHg 33%
    11:00 +26°C° 0 mm 2 mps 639 mmHg 29%
    12:00 +28°C° 0 mm 2 mps 639 mmHg 25%
    13:00 +28°C° 0 mm 2 mps 639 mmHg 24%
    14:00 +28°C° 0 mm 2 mps 639 mmHg 24%
    15:00 +29°C° 0 mm 2 mps 639 mmHg 23%
    16:00 +27°C° 0 mm 2 mps 638 mmHg 29%
    17:00 +25°C° 0 mm 2 mps 637 mmHg 34%
    18:00 +23°C° 0 mm 2 mps 637 mmHg 40%
    19:00 +20°C° 0.1 mm 2 mps 637 mmHg 46%
    20:00 +19°C° 0.1 mm 2 mps 636 mmHg 51%
    21:00 +18°C° 0.1 mm 2 mps 636 mmHg 57%
    22:00 +17°C° 0 mm 2 mps 636 mmHg 59%
    23:00 +17°C° 0 mm 2 mps 636 mmHg 62%

    Tomorrow, 21 September, Thursday

    Time Temperature Precipitation Wind Pressure Humidity
    00:00 +16°C° 0 mm 1 mps 636 mmHg 64%
    01:00 +16°C° 0 mm 1 mps 636 mmHg 65%
    02:00 +16°C° 0 mm 1 mps 636 mmHg 66%
    03:00 +16°C° 0 mm 1 mps 636 mmHg 66%
    04:00 +15°C° 0 mm 1 mps 636 mmHg 66%
    05:00 +15°C° 0 mm 1 mps 635 mmHg 66%
    06:00 +15°C° 0 mm 1 mps 635 mmHg 65%
    07:00 +18°C° 0 mm 1 mps 636 mmHg 55%
    08:00 +21°C° 0 mm 1 mps 637 mmHg 44%
    09:00 +24°C° 0 mm 2 mps 638 mmHg 34%
    10:00 +25°C° 0 mm 2 mps 638 mmHg 31%
    11:00 +27°C° 0 mm 2 mps 638 mmHg 28%
    12:00 +28°C° 0 mm 3 mps 638 mmHg 25%
    13:00 +28°C° 0 mm 3 mps 638 mmHg 25%
    14:00 +28°C° 0 mm 3 mps 637 mmHg 25%
    15:00 +28°C° 0 mm 3 mps 637 mmHg 26%
    16:00 +26°C° 0.1 mm 3 mps 636 mmHg 32%
    17:00 +24°C° 0.1 mm 2 mps 636 mmHg 39%
    18:00 +21°C° 0.1 mm 2 mps 635 mmHg 45%
    19:00 +20°C° 0 mm 2 mps 635 mmHg 51%
    20:00 +20°C° 0 mm 2 mps 635 mmHg 57%
    21:00 +19°C° 0 mm 2 mps 635 mmHg 62%
    22:00 +18°C° 0 mm 2 mps 635 mmHg 66%
    23:00 +17°C° 0 mm 2 mps 635 mmHg 71%

    Day after tomorrow, 22 September, Friday

    Time Temperature Precipitation Wind Pressure Humidity
    00:00 +16°C° 0 mm 2 mps 635 mmHg 75%
    01:00 +16°C° 0 mm 2 mps 634 mmHg 76%
    02:00 +15°C° 0 mm 2 mps 634 mmHg 77%
    03:00 +15°C° 0 mm 2 mps 634 mmHg 79%
    04:00 +14°C° 0 mm 1 mps 634 mmHg 79%
    05:00 +14°C° 0 mm 1 mps 634 mmHg 80%
    06:00 +14°C° 0 mm 1 mps 634 mmHg 81%
    07:00 +16°C° 0 mm 1 mps 634 mmHg 67%
    08:00 +19°C° 0 mm 2 mps 635 mmHg 54%
    09:00 +23°C° 0 mm 2 mps 636 mmHg 41%
    10:00 +24°C° 0 mm 2 mps 636 mmHg 36%
    11:00 +26°C° 0 mm 3 mps 636 mmHg 31%
    12:00 +27°C° 0 mm 3 mps 636 mmHg 26%
    13:00 +27°C° 0 mm 3 mps 636 mmHg 25%
    14:00 +28°C° 0 mm 3 mps 636 mmHg 25%
    15:00 +28°C° 0 mm 3 mps 635 mmHg 25%
    16:00 +26°C° 0 mm 3 mps 635 mmHg 31%
    17:00 +24°C° 0 mm 2 mps 634 mmHg 37%
    18:00 +21°C° 0 mm 2 mps 634 mmHg 43%
    19:00 +19°C° 0 mm 2 mps 634 mmHg 50%
    20:00 +18°C° 0 mm 2 mps 634 mmHg 57%
    21:00 +17°C° 0 mm 2 mps 634 mmHg 64%
    22:00 +16°C° 0 mm 2 mps 634 mmHg 66%
    23:00 +16°C° 0 mm 2 mps 634 mmHg 68%

    23 September, Saturday

    Time Temperature Precipitation Wind Pressure Humidity
    00:00 +15°C° 0 mm 2 mps 634 mmHg 70%
    01:00 +15°C° 0 mm 2 mps 634 mmHg 69%
    02:00 +15°C° 0 mm 2 mps 634 mmHg 68%
    03:00 +14°C° 0 mm 2 mps 634 mmHg 67%
    04:00 +14°C° 0 mm 2 mps 634 mmHg 66%
    05:00 +14°C° 0 mm 1 mps 634 mmHg 65%
    06:00 +13°C° 0 mm 1 mps 634 mmHg 65%
    07:00 +16°C° 0 mm 1 mps 635 mmHg 58%
    08:00 +19°C° 0 mm 1 mps 636 mmHg 51%
    09:00 +21°C° 0 mm 1 mps 637 mmHg 44%
    10:00 +23°C° 0 mm 2 mps 637 mmHg 40%
    11:00 +24°C° 0 mm 2 mps 637 mmHg 36%
    12:00 +26°C° 0 mm 2 mps 637 mmHg 32%
    13:00 +26°C° 0.2 mm 3 mps 637 mmHg 32%
    14:00 +26°C° 0.2 mm 3 mps 637 mmHg 31%
    15:00 +26°C° 0.2 mm 3 mps 637 mmHg 31%
    16:00 +24°C° 0.2 mm 3 mps 637 mmHg 38%
    17:00 +21°C° 0.2 mm 2 mps 636 mmHg 46%
    18:00 +19°C° 0.2 mm 2 mps 636 mmHg 53%
    19:00 +18°C° 0 mm 2 mps 636 mmHg 59%
    20:00 +17°C° 0 mm 2 mps 637 mmHg 64%
    21:00 +15°C° 0 mm 2 mps 637 mmHg 70%
    22:00 +15°C° 0 mm 2 mps 637 mmHg 70%
    23:00 +14°C° 0 mm 2 mps 637 mmHg 70%

    24 September, Sunday

    Time Temperature Precipitation Wind Pressure Humidity
    00:00 +14°C° 0 mm 2 mps 637 mmHg 70%
    01:00 +13°C° 0 mm 2 mps 637 mmHg 71%
    02:00 +13°C° 0 mm 2 mps 637 mmHg 71%
    03:00 +12°C° 0 mm 2 mps 636 mmHg 71%
    04:00 +12°C° 0 mm 2 mps 636 mmHg 72%
    05:00 +12°C° 0 mm 2 mps 636 mmHg 72%
    06:00 +12°C° 0 mm 2 mps 637 mmHg 73%
    07:00 +14°C° 0 mm 2 mps 637 mmHg 64%
    08:00 +17°C° 0 mm 2 mps 638 mmHg 56%
    09:00 +19°C° 0 mm 2 mps 639 mmHg 47%
    10:00 +21°C° 0 mm 2 mps 639 mmHg 43%
    11:00 +22°C° 0 mm 3 mps 639 mmHg 38%
    12:00 +25°C° 0 mm 3 mps 639 mmHg 34%
    13:00 +25°C° 0.1 mm 3 mps 639 mmHg 33%
    14:00 +25°C° 0.1 mm 3 mps 639 mmHg 33%
    15:00 +25°C° 0.1 mm 3 mps 638 mmHg 32%
    16:00 +22°C° 0.2 mm 3 mps 638 mmHg 39%
    17:00 +20°C° 0.2 mm 3 mps 637 mmHg 46%
    18:00 +18°C° 0.2 mm 2 mps 637 mmHg 53%
    19:00 +17°C° 0 mm 2 mps 637 mmHg 58%
    20:00 +16°C° 0 mm 2 mps 637 mmHg 63%
    21:00 +14°C° 0 mm 2 mps 637 mmHg 68%
    22:00 +14°C° 0 mm 2 mps 637 mmHg 68%
    23:00 +13°C° 0 mm 2 mps 637 mmHg 69%

    25 September, Monday

    Time Temperature Precipitation Wind Pressure Humidity
    00:00 +13°C° 0 mm 2 mps 637 mmHg 70%
    01:00 +13°C° 0 mm 2 mps 637 mmHg 69%
    02:00 +12°C° 0 mm 2 mps 637 mmHg 68%
    03:00 +12°C° 0 mm 2 mps 637 mmHg 67%
    04:00 +10°C° 0 mm 2 mps 637 mmHg 66%
    05:00 +10°C° 0 mm 2 mps 637 mmHg 65%
    06:00 +10°C° 0 mm 2 mps 637 mmHg 64%
    07:00 +13°C° 0 mm 2 mps 638 mmHg 57%
    08:00 +16°C° 0 mm 2 mps 639 mmHg 49%
    09:00 +18°C° 0 mm 2 mps 639 mmHg 42%
    10:00 +20°C° 0 mm 2 mps 640 mmHg 39%
    11:00 +21°C° 0 mm 3 mps 640 mmHg 35%
    12:00 +24°C° 0 mm 3 mps 640 mmHg 32%
    13:00 +24°C° 0 mm 3 mps 640 mmHg 31%
    14:00 +24°C° 0 mm 3 mps 640 mmHg 30%
    15:00 +24°C° 0 mm 3 mps 639 mmHg 30%
    16:00 +21°C° 0 mm 3 mps 639 mmHg 36%
    17:00 +19°C° 0 mm 3 mps 638 mmHg 43%
    18:00 +17°C° 0 mm 3 mps 638 mmHg 49%
    19:00 +16°C° 0.1 mm 2 mps 638 mmHg 54%
    20:00 +15°C° 0.1 mm 2 mps 638 mmHg 59%
    21:00 +14°C° 0.1 mm 2 mps 638 mmHg 64%
    22:00 +14°C° 0 mm 2 mps 638 mmHg 67%
    23:00 +13°C° 0 mm 2 mps 638 mmHg 69%
    Show more